|
NORAD ID: 11667 Int'l Code: 1980-003A
Perigee: 972.0 km
Apogee: 1,017.4 km
Inclination: 83.0 °
Period: 104.9 minutes
Semi major axis: 7365 km
Launch date: January 14, 1980
Source: Commonwealth of Independent States (former USSR) (CIS)
Two Line Element Set (TLE):
1 11667U 80003A 13142.04376741 .00000024 00000-0 93953-5 0 8994
2 11667 082.9519 100.5346 0030807 252.0774 155.3220 13.73358789671366
Source:
NASA's NSSDC Master Catalog entry for COSMOS 1150
|